Chapel Hill, NC

8:08 AM EDT on April 26, 2017 (GMT -0400)
Williams

Weather History for KIGX - March, 2014

Change the Weather History Date:

Thursday, March 20, 2014

  Actual Average Record
Temperature  
Mean Temperature 53 °F -  
Max Temperature 64 °F 61 °F 81 °F (1952)
Min Temperature 42 °F 37 °F 25 °F (1967)
Degree Days  
Heating Degree Days 12    
Growing Degree Days 3 (Base 50)    
Moisture  
Dew Point 34 °F    
Average Humidity 61    
Maximum Humidity 97    
Minimum Humidity 23    
Precipitation  
Precipitation 0.00 in - - ()
Sea Level Pressure  
Sea Level Pressure 29.98 in    
Wind  
Wind Speed 4 mph (West)    
Max Wind Speed 13 mph    
Max Gust Speed 23 mph    
Visibility 7 miles    
Events      
Averages and records for this station are not official NWS values.
T = Trace of Precipitation, MM = Missing Value Source: NWS Daily Summary

Daily Weather History Graph

Daily Weather History Graph

Search for Another Location

Airport or City:

Trip Planner

Search our weather history database for the weather conditions in past years. The results will help you decide how hot, cold, wet, or windy it might be!

Date:

Astronomy

Mar. 20, 2014 Rise Set
Actual Time 7:19 AM EDT 7:28 PM EDT
Civil Twilight 6:54 AM EDT 7:53 PM EDT
Nautical Twilight 6:24 AM EDT 8:23 PM EDT
Astronomical Twilight 5:54 AM EDT 8:53 PM EDT
Moon 11:37 PM EDT (3/20) 9:32 AM EDT (3/20)
Length of Visible Light 12h 59m
Length of Day
12h 08m
Waning Gibbous, 84% of the Moon is Illuminated
Mar 20
Waning Gibbous
Mar 23
Last Quarter
Mar 30
New
Apr 7
First Quarter
Apr 15
Full

Hourly Weather History & Observations

Time (EDT) Temp. Windchill Dew Point Humidity Pressure Visibility Wind Dir Wind Speed Gust Speed Precip Events Conditions
12:56 AM 43.0 °F 40.3 °F 42.1 °F 97% 29.97 in 4.0 mi Variable 4.6 mph - N/A   Clear
1:56 AM 43.0 °F 41.3 °F 42.1 °F 97% 29.95 in 5.0 mi Variable 3.5 mph - N/A   Clear
2:56 AM 43.0 °F - 41.0 °F 93% 29.95 in 4.0 mi Calm Calm - N/A   Partly Cloudy
3:56 AM 42.1 °F - 41.0 °F 96% 29.93 in 4.0 mi Calm Calm - N/A   Clear
4:56 AM 42.1 °F 40.2 °F 41.0 °F 96% 29.94 in 4.0 mi West 3.5 mph - N/A   Clear
5:56 AM 43.0 °F - 41.0 °F 93% 29.95 in 4.0 mi Calm Calm - N/A   Clear
6:56 AM 42.1 °F 40.2 °F 41.0 °F 96% 29.96 in 3.0 mi West 3.5 mph - N/A   Clear
7:33 AM 42.1 °F 40.2 °F 39.9 °F 92% 29.98 in 2.0 mi Variable 3.5 mph - N/A   Clear
7:45 AM 42.1 °F - 41.0 °F 96% 29.99 in 3.0 mi Calm Calm - N/A   Clear
7:56 AM 43.0 °F 41.3 °F 41.0 °F 93% 29.99 in 4.0 mi West 3.5 mph - N/A   Clear
8:56 AM 45.0 °F 43.5 °F 43.0 °F 93% 30.00 in 4.0 mi Variable 3.5 mph - N/A   Clear
9:56 AM 53.1 °F - 41.0 °F 64% 30.02 in 10.0 mi WNW 9.2 mph - N/A   Clear
10:56 AM 55.9 °F - 37.0 °F 49% 30.02 in 10.0 mi WNW 11.5 mph 17.3 mph N/A   Clear
11:56 AM 59.0 °F - 30.0 °F 33% 30.01 in 10.0 mi West 12.7 mph 18.4 mph N/A   Clear
12:56 PM 61.0 °F - 28.9 °F 30% 30.00 in 10.0 mi WNW 9.2 mph 18.4 mph N/A   Clear
1:56 PM 63.0 °F - 25.0 °F 24% 29.99 in 10.0 mi West 12.7 mph 21.9 mph N/A   Clear
2:56 PM 64.0 °F - 28.9 °F 27% 29.96 in 10.0 mi West 11.5 mph 20.7 mph N/A   Clear
3:56 PM 64.0 °F - 27.0 °F 25% 29.95 in 10.0 mi West 10.4 mph 23.0 mph N/A   Clear
4:56 PM 64.0 °F - 25.0 °F 23% 29.94 in 10.0 mi SW 8.1 mph - N/A   Clear
5:56 PM 64.0 °F - 26.1 °F 24% 29.94 in 10.0 mi Variable 5.8 mph - N/A   Clear
6:56 PM 62.1 °F - 25.0 °F 24% 29.94 in 10.0 mi Variable 3.5 mph - N/A   Clear
7:56 PM 53.1 °F - 32.0 °F 45% 29.97 in 10.0 mi Calm Calm - N/A   Clear
8:56 PM 50.0 °F - 28.9 °F 44% 29.98 in 10.0 mi Calm Calm - N/A   Clear
9:56 PM 46.9 °F - 28.9 °F 50% 30.00 in 10.0 mi Calm Calm - N/A   Clear
10:56 PM 48.0 °F - 25.0 °F 41% 30.03 in 10.0 mi WNW 6.9 mph - N/A   Clear
11:56 PM 46.9 °F - 23.0 °F 39% 30.05 in 10.0 mi WNW 4.6 mph - N/A   Clear